Location: Unspecified
(54.4642°N, 0.0000°E)
Time: 03:50:06
(UTC+00:00)

CHECKMATE 3 - Visible Passes

Search period start: 04 April 2026 00:00
Search period end: 14 April 2026 00:00
Orbit: 934 x 950 km, 81.0° (Epoch: 29 March)

Date Brightness Start Highest point End Pass type
(mag) Time Alt. Az. Time Alt. Az. Time Alt. Az.
4 Apr ? 00:22:16 10° W 00:25:55 16° NW 00:29:35 10° N visible
4 Apr ? 21:08:17 34° SE 21:10:08 44° E 21:15:51 10° NNE visible
4 Apr ? 22:52:12 26° WSW 22:55:07 43° WNW 23:00:56 10° N visible
5 Apr ? 00:39:30 10° WNW 00:41:53 12° NW 00:44:16 10° NNW visible
5 Apr ? 19:39:09 10° E 19:41:43 13° ENE 19:44:16 10° NE visible
5 Apr ? 21:22:53 35° SSE 21:25:24 61° E 21:31:24 10° NNE visible
5 Apr ? 23:06:47 16° WSW 23:10:46 32° WNW 23:16:10 10° N visible
6 Apr ? 19:53:31 13° ESE 19:56:41 19° E 20:00:42 10° NE visible
6 Apr ? 21:37:24 29° S 21:40:44 85° ESE 21:46:51 10° NNE visible
6 Apr ? 23:21:36 10° WSW 23:26:28 24° NW 23:31:21 10° N visible
7 Apr ? 20:07:56 14° SE 20:11:44 26° E 20:16:38 10° NNE visible
7 Apr ? 21:51:49 20° SSW 21:56:09 71° WNW 22:02:15 10° NNE visible
7 Apr ? 23:38:09 10° W 23:42:17 19° NW 23:46:26 10° N visible
8 Apr ? 20:22:14 14° SSE 20:26:52 36° E 20:32:21 10° NNE visible
8 Apr ? 22:06:07 12° SW 22:11:39 51° WNW 22:17:36 10° N visible
8 Apr ? 23:55:04 10° WNW 23:58:11 14° NW 00:01:19 10° NNW visible
9 Apr ? 20:36:23 11° SSE 20:42:05 51° E 20:47:57 10° NNE visible
9 Apr ? 22:21:38 10° SW 22:27:14 38° WNW 22:32:53 10° N visible
10 Apr ? 00:12:46 10° NW 00:14:11 11° NW 00:15:36 10° NNW visible
10 Apr ? 20:51:19 10° S 20:57:22 72° E 21:03:27 10° NNE visible
10 Apr ? 22:37:45 10° WSW 22:42:55 28° WNW 22:48:06 10° N visible
11 Apr ? 19:24:04 10° SE 19:28:32 22° E 19:33:00 10° NE visible
11 Apr ? 21:06:39 10° SSW 21:12:45 84° WNW 21:18:52 10° NNE visible
11 Apr ? 22:54:08 10° W 22:58:40 21° NW 23:03:14 10° N visible
12 Apr ? 04:23:55 10° NNE 04:24:15 10° NE 04:24:35 10° NE visible
12 Apr ? 19:38:26 10° SSE 19:43:37 30° E 19:48:49 10° NNE visible
12 Apr ? 21:22:12 10° SSW 21:28:13 61° WNW 21:34:15 10° N visible
12 Apr ? 23:10:50 10° W 23:14:32 16° NW 23:18:14 10° N visible
13 Apr ? 19:53:08 10° SSE 19:58:48 42° E 20:04:28 10° NNE visible
13 Apr ? 21:37:58 10° SW 21:43:45 44° WNW 21:49:33 10° N visible
13 Apr ? 23:27:59 10° WNW 23:30:28 12° NW 23:32:58 10° NNW visible
